www.pogodaiklimat.ru

Погода и климат >> Архив погоды >> Россия >> Самарская область >> Большая Глушица


ПОГОДА в Большая Глушица

  • Прогноз погоды в Большая Глушица
  • Монитор погоды в Большая Глушица

АРХИВ ПОГОДЫ в Большая Глушица

Время (UTC), дата Ветер
(напр.,м/с)
 
Видим.   Явления Облачность Т
(С)
Тd
(С)
f
(%)
Тe
(С)
Тes
(С)
Комфортность P
(гПа)
Po
(гПа)
Тmin
(С)
Tmax
(С)
R
(мм)
R24
(мм)
S
(см)
09 10.09 С 3 50 км 6/4 600 м
[Cu hum Ci fib]
+24.0 +7.7 35 +24 +29 комфорт 1027.9 1020.1
12 10.09 С 3 50 км 6/3 600 м
[Cu hum Ci sp]
+23.8 +6.2 32 +24 +26 комфорт 1027.6 1019.7
15 10.09 С 2 50 км 4/3 600 м
[Sc Ci fib]
+20.1 +6.3 41 +22 +22 комфорт 1028.4 1020.4 +24.9
18 10.09 СВ 2 10 км 1/0
[Ci fib]
+16.1 +5.9 51 +16 +16 1029.2 1021.2
21 10.09 В 1 10 км ясно +11.1 +5.6 69 +11 +11 1030.4 1022.2
00 11.09 З 1 10 км ясно +8.0 +5.5 84 +7 +7 1031.6 1023.3
03 11.09 штиль 0 20 км ясно +8.0 +5.9 87 +7 +7 1032.8 1024.5 +6.1
06 11.09 С 3 50 км 6/0
[Ci sp]
+17.9 +9.7 59 +18 +22 1033.0 1025.0
09 11.09 СВ 2 50 км 8/6 600 м
[Cu hum Ci sp]
+22.3 +6.2 35 +23 +26 комфорт 1032.2 1024.3
12 11.09 СВ 3 50 км 8/8 600 м
[Cu hum]
+23.7 +4.9 30 +24 +24 комфорт 1031.4 1023.5
15 11.09 СВ 1 50 км 4/4 600 м
[Sc]
+19.9 +6.0 40 +22 +22 комфорт 1031.2 1023.3 +24.4
18 11.09 СВ 1 10 км ясно +14.3 +6.1 58 +15 +15 1031.9 1023.8
21 11.09 В 1 10 км ясно +11.6 +5.9 68 +12 +12 1032.3 1024.1
00 12.09 В 1 10 км ясно +8.2 +5.0 80 +8 +8 1032.4 1024.1
03 12.09 штиль 0 20 км ясно +7.6 +5.1 84 +7 +7 1032.8 1024.5 +5.2
06 12.09 штиль 0 50 км ясно +19.4 +6.8 44 +20 +28 1032.3 1024.3
09 12.09 Ю 2 50 км 6/6 600 м
[Cu hum]
+24.7 +4.1 26 +24 +28 комфорт 1030.8 1023.0
12 12.09 Ю 1 50 км 6/6 600 м
[Cu hum]
+25.3 +3.3 24 +24 +26 комфорт 1029.1 1021.3
15 12.09 Ю 1 50 км ясно +20.2 +5.1 37 +22 +22 комфорт 1028.3 1020.4 +25.8
18 12.09 штиль 0 10 км ясно +13.4 +4.6 55 +13 +13 1028.6 1020.5
21 12.09 штиль 0 10 км ясно +9.6 +3.9 68 +9 +9 1028.1 1019.9
00 13.09 штиль 0 10 км ясно +7.1 +4.4 83 +6 +6 1027.9 1019.6
03 13.09 штиль 0 20 км ясно +6.8 +3.9 82 +6 +6 1027.7 1019.4 +5.7
06 13.09 В 1 50 км ясно +19.4 +5.9 41 +21 +28 комфорт 1026.9 1019.0
09 13.09 ЮЗ 2 50 км ясно +25.8 +3.4 23 +25 +34 комфорт 1025.2 1017.5
12 13.09 Ю 2 50 км 3/3 600 м
[Cu hum]
+26.3 +1.5 20 +25 +27 комфорт 1023.4 1015.7
15 13.09 ЮЗ 2 20 км ясно +21.7 +2.7 29 +22 +22 комфорт 1022.4 1014.5 +26.9
18 13.09 штиль 0 10 км ясно +13.4 +2.2 47 +13 +13 1022.6 1014.5
21 13.09 штиль 0 10 км ясно +8.8 +3.4 69 +8 +8 1022.0 1013.8
00 14.09 штиль 0 10 км ясно +6.9 +2.9 76 +6 +6 1021.6 1013.3
03 14.09 штиль 0 20 км ясно +6.0 +2.5 78 +5 +5 1020.7 1012.4 +5.5
06 14.09 В 1 50 км 3/0
[Ac trans]
+20.7 +4.1 34 +22 +28 комфорт 1019.3 1011.5
09 14.09 ЮЗ 4 50 км 4/4 600 м
[Cu med, cong]
+26.7 +1.0 19 +25 +29 комфорт 1017.2 1009.5
12 14.09 ЮЗ 4-10
{11}
50 км 6/6 600 м
[Sc]
+27.4 -0.2 16 +25 +26 комфорт 1015.7 1008.1
15 14.09 ЮЗ 2
{10}
20 км 6/6 600 м
[Sc]
+23.7 +1.5 23 +23 +23 комфорт 1015.1 1007.4 +27.8
18 14.09 Ю 2 10 км 3/3 600 м
[Sc]
+16.2 +1.3 36 +16 +16 1014.7 1006.8
21 14.09 Ю 3 10 км 10/0
[Ac trans]
+19.3 +1.3 30 +20 +20 1013.6 1005.7
00 15.09 ЮЗ 3 10 км 10/4 600 м
[Cb calv Ac trans]
+19.2 +1.7 31 +20 +20 1013.0 1005.1
03 15.09 З 1 20 км 10/6 600 м
[Sc Ac trans]
+15.2 +8.2 63 +16 +16 1013.2 1005.3 +15.2
06 15.09 З 2 50 км 10/10 660 м
[Sc]
+17.0 +10.0 63 +17 +17 1014.0 1006.1 +15.2
09 15.09 З 3 20 км слаб. ливневой дождь 10/10 480 м
[Cb cap]
+13.2 +10.9 86 +12 +12 1015.1 1007.0
12 15.09 З 2 50 км {ливн. осадки} 8/8 600 м
[Sc]
+15.9 +10.7 71 +16 +17 1013.6 1005.7
15 15.09 штиль 0
{10}
20 км {ливн. осадки} 8/4 600 м
[Sc Ac trans]
+11.9 +10.9 94 +11 +11 1013.5 1005.4 +17.4 2
18 15.09 Ю 1 10 км {ливн. осадки} 4/0
[Ac trans]
+9.3 +8.5 95 +9 +9 1013.8 1005.7
21 15.09 З 2 10 км ясно +8.4 +6.2 86 +6 +6 1013.4 1005.3
00 16.09 ЮЗ 3 10 км 8/0
[Ci sp]
+6.8 +4.9 88 +4 +4 1013.8 1005.6
03 16.09 штиль 0 20 км 8/8 600 м
[Sc]
+7.2 +5.4 88 +6 +6 1013.3 1005.2 +6.5
06 16.09 Ю 4 50 км 8/6 600 м
[Sc Ci sp]
+12.3 +7.2 71 +10 +12 1012.3 1004.3
09 16.09 Ю 6-12
{12}
50 км 10/4 600 м
[Cb cap Ac trans]
+17.3 +3.6 40 +17 +17 1009.9 1002.1
12 16.09 З 3
{14}
20 км 10/10 600 м
[Cb cap]
+15.2 +6.4 56 +15 +15 1008.4 1000.5
15 16.09 В 2 20 км 10/10 660 м
[Cb cap]
+12.6 +8.4 76 +12 +12 1006.0 998.0 +18.2
18 16.09 З 1 10 км 10/10 570 м
[Cb cap]
+15.4 +5.9 53 +16 +16 1004.8 996.9
21 16.09 Ю 2 10 км 8/8 600 м
[Cb cap]
+13.1 +6.9 66 +13 +13 1004.1 996.1
00 17.09 ЮЗ 2 10 км 8/8 600 м
[Sc]
+13.4 +5.6 59 +13 +13 1004.5 996.6
03 17.09 ЮЗ 3 20 км 8/0
[Ci sp]
+12.4 +5.9 65 +11 +11 1004.9 997.0 +11.8
06 17.09 ЮЗ 3 50 км 8/0
[Ac trans Ci sp]
+17.0 +6.2 49 +17 +20 1005.2 997.4

 

Местоположение метеостанции Большая Глушица (Самарская область, Россия): широта 52.38 долгота 50.47 высота над уровнем моря 64 м.

В архиве по умолчанию представлена погода в Большая Глушица за последнюю неделю. Архивные данные за месяц целиком и за предыдущие месяцы, начиная с января 2011 года, Вы можете получить, выбрав интересующий диапазон дат из раскрывающегося списка и нажав кнопку "Ввод!".


*Определитесь, кто Вы:
робот инопланетянин человек

Внимание! Время в таблицах - всемирное. Для получения местного времени необходимо прибавить поправку, которая равна 4 ч.

Смотрите также архив погоды в соседних городах и на ближайших метеорологических станциях:

Погода в Перелюбе (Саратовская область, Россия) (58 км)
Погода в Авангард Зерносовхозе (Самарская область, Россия) (61 км)
Погода в Аглосе (Самарская область, Россия) (70 км)
Погода в Красносамарском (Самарская область, Россия) (78 км)
Погода в Чапаевске (Самарская область, Россия) (85 км)
Погода в Самаре-Центр (Самарская область, Россия) (90 км)
Погода в Самаре АМС (Самарская область, Россия) (94 км)
Погода в Богатом (Самарская область, Россия) (95 км)
Погода в Первомайском (Оренбургская область, Россия) (97 км)
Погода в Безенчуке (Самарская область, Россия) (97 км)

Пояснения к столбцам:

Ветер - указаны скорость ветра в м/с - средняя за 10 мин, порывы в срок и между сроками (в фигурных скобках) и направление, откуда дует ветер: С - северный, СВ - северо-восточный, В - восточный, ЮВ - юго-восточный, Ю - южный, ЮЗ - юго-западный, З - западный, СЗ - северо-западный.
Видимость - горизонтальная дальность видимости в метрах или километрах. При видимости от 1 до 10 км при отсутствии осадков обычно наблюдается дымка, при ухудшении видимости до 1 км и менее - туман. В сухую погоду видимость может ухудшаться дымом, пылью или мглою.
Явления - указаны атмосферные явления, наблюдавшиеся в срок или в последний час перед сроком; фигурными скобками обозначены явления, наблюдавшиеся между сроками (за 1-3 часа до срока); квадратными скобками обозначены град или гололедные отложения с указанием их диаметра в мм.
Облачность - указаны через наклонную черту общая и нижняя облачность в баллах и высота нижней границы облаков в метрах; квадратными скобками обозначены формы облаков: Ci - перистые, Cs - перисто-слоистые, Cc - перисто-кучевые, Ac - высококучевые, As - высокослоистые, Sc - слоисто-кучевые, Ns - слоисто-дождевые, Cu - кучевые, Cb - кучево-дождевые. Подробнее классификацию облаков см. в Атласе облаков (PDF).
T - Температура воздуха - температура, измеренная на высоте 2 м над землей.
Td - Температура точки росы - температура, при понижении до которой содержащийся в воздухе водяной пар достигнет насыщения.
f - Относительная влажность воздуха - влажноcть воздуха, измеренная на высоте 2 м над землей.
Te - Эффективная температура - температура, которую ощущает одетый по сезону человек в тени. Характеристика душности погоды. При расчете учитывается влияние влажности воздуха и скорости ветра на теплоощущения человека.
Tes - Эффективная температура на солнце - температура, которую ощущает человек, с поправкой на солнечный нагрев. Характеристика знойности погоды. Зависит от высоты солнца над горизонтом, облачности и скорости ветра. Ночью, в пасмурную погоду, а также при ветре 12 м/с и более поправка равна нулю.
P - Атмосферное давление - приведенное к уровню моря атмосферное давление.
Po - Атмосферное давление - измеренное на уровне метеостанции атмосферное давление.
Tmin - Минимальная температура - минимум температуры воздуха на высоте 2 м над землей.
Tmax - Максимальная температура - максимум температуры воздуха на высоте 2 м над землей.
R - Количество осадков - Количество выпавших осадков за период времени, мм. При наведении курсора мыши на число - период времени, за который выпало указанное количество осадков.
R24 - Количество осадков - Количество выпавших осадков за 24 часа, мм.
S - Снежный покров - Высота снежного покрова, см. При наведении курсора мыши на число - состояние снежного покрова и степень покрытия местности в баллах.